Fort Eustis, VA

2:32 AM EST on November 15, 2019 (GMT -0500)
Felker Army Air Field

Weather History for KFAF - September, 2019

Change the Weather History Date:

Tuesday, September 24, 2019

  Actual Average Record
Temperature  
Mean Temperature 74 °F -  
Max Temperature 79 °F 75 °F 96 °F (2010)
Min Temperature 64 °F 60 °F 50 °F (2013)
Cooling Degree Days 10    
Growing Degree Days 24 (Base 50)    
Moisture  
Dew Point 61 °F    
Average Humidity 61    
Maximum Humidity 78    
Minimum Humidity 43    
Precipitation  
Precipitation 0.00 in - - ()
Sea Level Pressure  
Sea Level Pressure 29.86 in    
Wind  
Wind Speed 4 mph ()    
Max Wind Speed 9 mph    
Max Gust Speed -    
Visibility 10.0 miles    
Events      
Averages and records for this station are not official NWS values.
T = Trace of Precipitation, MM = Missing Value Source: Averaged Metar Reports

Daily Weather History Graph

Daily Weather History Graph

Search for Another Location

Airport or City:

Astronomy

Sep. 24, 2019 Rise Set
Actual Time 6:55 AM EDT 7:00 PM EDT
Civil Twilight 6:29 AM EDT 7:26 PM EDT
Nautical Twilight 5:59 AM EDT 7:56 PM EDT
Astronomical Twilight 5:28 AM EDT 8:27 PM EDT
Moon 1:46 AM EDT (9/24) 4:36 PM EDT (9/24)
Length of Visible Light 12h 56m
Length of Day
12h 04m
Waning Crescent, 23% of the Moon is Illuminated
Sep 24
Waning Crescent
Sep 28
New
Oct 5
First Quarter
Oct 13
Full
Oct 21
Last Quarter

Hourly Weather History & Observations

Time (EDT) Temp. Heat Index Dew Point Humidity Pressure Visibility Wind Dir Wind Speed Gust Speed Precip Events Conditions
12:56 AM 75.7 °F - 65.3 °F 70% 29.85 in 10.0 mi SW 6.9 mph - N/A   Mostly Cloudy
1:56 AM 74.8 °F - 65.1 °F 72% 29.84 in 10.0 mi SSW 4.6 mph - N/A   Mostly Cloudy
2:56 AM 74.5 °F - 64.8 °F 72% 29.83 in 10.0 mi Calm Calm - N/A   Mostly Cloudy
3:56 AM 73.6 °F - 64.8 °F 74% 29.83 in 10.0 mi Calm Calm - N/A   Mostly Cloudy
4:56 AM 72.9 °F - 65.5 °F 78% 29.83 in 10.0 mi Calm Calm - N/A   Mostly Cloudy
5:56 AM 73.0 °F - 65.7 °F 78% 29.84 in 10.0 mi Calm Calm - N/A   Mostly Cloudy
6:56 AM 74.3 °F - 64.6 °F 72% 29.86 in 10.0 mi North 4.6 mph - N/A   Mostly Cloudy
7:56 AM 74.8 °F - 63.9 °F 69% 29.87 in 10.0 mi North 5.8 mph - N/A   Scattered Clouds
8:56 AM 77.2 °F - 63.1 °F 62% 29.88 in 10.0 mi NNE 6.9 mph - N/A   Scattered Clouds
9:55 AM 80.6 °F 81.8 °F 62.6 °F 54% 29.88 in 10.0 mi NE 9.2 mph - N/A   Partly Cloudy
9:56 AM 79.9 °F - 61.7 °F 54% 29.89 in 10.0 mi NE 9.2 mph - N/A   Clear
10:55 AM 82.4 °F 82.9 °F 60.8 °F 48% 29.89 in 10.0 mi Variable 6.9 mph - N/A   Partly Cloudy
10:56 AM 81.5 °F 82.2 °F 61.0 °F 50% 29.90 in 10.0 mi North 6.9 mph - N/A   Partly Cloudy
11:56 AM 79.0 °F - 58.6 °F 50% 29.89 in 10.0 mi NNW 5.8 mph - N/A   Scattered Clouds
12:55 PM 80.6 °F 81.5 °F 60.8 °F 51% 29.87 in 10.0 mi Variable 4.6 mph - N/A   Scattered Clouds
12:56 PM 81.3 °F 81.9 °F 60.3 °F 49% 29.88 in 10.0 mi NW 4.6 mph - N/A   Clear
1:56 PM 82.6 °F 82.6 °F 59.0 °F 45% 29.86 in 10.0 mi NNW 4.6 mph - N/A   Clear
2:56 PM 83.8 °F 83.6 °F 58.8 °F 43% 29.84 in 10.0 mi North 6.9 mph - N/A   Mostly Cloudy
3:56 PM 83.5 °F 83.7 °F 60.4 °F 46% 29.83 in 10.0 mi ESE 6.9 mph - N/A   Scattered Clouds
4:56 PM 79.9 °F - 60.6 °F 52% 29.83 in 10.0 mi ESE 6.9 mph - N/A   Scattered Clouds
5:56 PM 77.9 °F - 60.4 °F 55% 29.84 in 10.0 mi East 8.1 mph - N/A   Scattered Clouds
6:56 PM 75.0 °F - 59.2 °F 58% 29.85 in 10.0 mi East 6.9 mph - N/A   Scattered Clouds
7:56 PM 73.0 °F - 59.7 °F 63% 29.87 in 10.0 mi ENE 3.5 mph - N/A   Partly Cloudy
8:56 PM 72.5 °F - 55.9 °F 56% 29.90 in 10.0 mi NNE 3.5 mph - N/A   Clear
9:56 PM 68.4 °F - 60.1 °F 75% 29.89 in 10.0 mi Calm Calm - N/A   Clear
10:56 PM 66.0 °F - 57.9 °F 75% 29.90 in 10.0 mi Calm Calm - N/A   Clear
11:56 PM 64.4 °F - 57.0 °F 77% 29.90 in 10.0 mi Calm Calm - N/A   Clear